Regional Weather Roundup
Issued by NWS

Home | Current Version | Previous Version | Text Only | Print | Product List | Glossary On
Versions: 1 2 3 4 5 6 7 8 9 10 11 12 13 14 15 16 17 18 19 20 21 22 23 24 25 26 27 28 29 30 31 32 33 34 35 36 37 38 39 40 41 42 43 44 45 46 47 48 49 50
000
ASUS43 KTOP 240459
RWRKS

WEATHER ROUNDUP FOR KANSAS
NATIONAL WEATHER SERVICE GOODLAND KS
1200 AM CDT MON APR 24 2017

NOTE:  "FAIR" INDICATES FEW OR NO CLOUDS BELOW 12,000 FEET WITH NO
SIGNIFICANT WEATHER AND/OR OBSTRUCTIONS TO VISIBILITY.

KSZ001>006-013>018-027>032-041>047-240600-
NORTHWEST KANSAS

CITY           SKY/WX    TMP DP  RH WIND       PRES   REMARKS
GOODLAND       CLOUDY    54  38  54 S22       29.69F
HAYS           CLOUDY    53  37  54 S18       29.83
HILL CITY      CLOUDY    55  38  52 S9        29.79F
RUSSELL        CLOUDY    54  36  50 S23       29.83F
$$

KSZ061>065-074>080-084>089-240600-
SOUTHWEST KANSAS

CITY           SKY/WX    TMP DP  RH WIND       PRES   REMARKS
DODGE CITY     CLEAR     53  36  52 S22G31    29.84F
ELKHART          N/A     53  33  46 S21         N/A
GARDEN CITY    CLOUDY    53  34  48 S15G24    29.79F
GREAT BEND     CLOUDY    53  36  52 S18       29.85F
$$

KSZ066>073-081>083-090>101-240600-
SOUTHEAST KANSAS

CITY           SKY/WX    TMP DP  RH WIND       PRES   REMARKS
CHANUTE        CLEAR     47  42  83 S6        29.98F
COFFEYVILLE    PTCLDY    46  43  89 E3        29.98F
HUTCHINSON     CLOUDY    51  38  60 SE12      29.90F
MEDICINE LODGE   N/A     51  38  60 S10       29.91F
NEWTON         CLOUDY    49  40  71 S12       29.94F
PARSONS        CLOUDY    46  43  89 CALM      29.99F
WICHITA INTL   CLOUDY    50  40  68 S10       29.93F
WICHITA JABRA  CLOUDY    49  39  68 S8        29.94F
WINFIELD       CLOUDY    50  39  66 SE7       29.96F
$$

KSZ007>012-019>026-033>040-048>060-102>105-240600-
NORTHEAST KANSAS

CITY           SKY/WX    TMP DP  RH WIND       PRES   REMARKS
CONCORDIA      CLOUDY    53  38  56 S16       29.87F
EMPORIA        PTCLDY    49  42  77 S8        29.95F
LAWRENCE       CLEAR     47  42  83 E5        29.97F
MANHATTAN      CLOUDY    52  40  63 S3        29.92F
OLATHE IND     CLOUDY    49  37  63 SE6       29.98F
OLATHE EXE     CLOUDY    51  39  63 CALM      29.98F
SALINA         CLOUDY    49  41  74 S6        29.90F
TOPEKA BILLARD CLOUDY    54  39  57 S5        29.96F
TOPEKA FORBES  CLOUDY    53  39  59 S6        29.95F
$$



USA.gov is the U.S. government's official web portal to all federal, state and local government web resources and services.